| time (UTC) | temp C | wind direction | speed KPH | gust KPH | rain 1hr cm | rain 24hr cm | rain mn cm | humidity % | barometer mb |
| 20260506015306 | 21 | 186 | 4.8 | 8.0 | 0.00 | 0.08 | 0.08 | 52 | 1010.4 |
| 20260506014303 | 21 | 174 | 3.2 | 3.2 | 0.00 | 0.08 | 0.08 | 52 | 1010.1 |
| 20260506013302 | 21 | 178 | 3.2 | 4.8 | 0.00 | 0.08 | 0.08 | 52 | 1010.0 |
| 20260506012306 | 21 | 163 | 1.6 | 1.6 | 0.00 | 0.08 | 0.08 | 51 | 1009.9 |
| 20260506011301 | 21 | 173 | 1.6 | 1.6 | 0.00 | 0.08 | 0.08 | 51 | 1009.6 |
| 20260506010257 | 21 | 176 | 3.2 | 3.2 | 0.00 | 0.08 | 0.08 | 51 | 1009.6 |
| 20260506005256 | 21 | 180 | 1.6 | 3.2 | 0.00 | 0.08 | 0.08 | 50 | 1009.4 |
| 20260506004256 | 22 | 172 | 1.6 | 3.2 | 0.00 | 0.08 | 0.08 | 49 | 1009.5 |
| 20260506003254 | 22 | 166 | 6.4 | 8.0 | 0.00 | 0.08 | 0.08 | 48 | 1009.4 |
| 20260506002253 | 22 | 170 | 4.8 | 8.0 | 0.00 | 0.08 | 0.08 | 47 | 1009.3 |
| 20260506001252 | 22 | 165 | 4.8 | 4.8 | 0.00 | 0.08 | 0.08 | 47 | 1009.1 |
| 20260506000252 | 23 | 192 | 1.6 | 3.2 | 0.00 | 0.08 | 0.08 | 46 | 1009.2 |
| 20260505235252 | 23 | 211 | 3.2 | 8.0 | 0.00 | 0.08 | 0.08 | 46 | 1009.1 |
| 20260505234252 | 23 | 199 | 1.6 | 3.2 | 0.00 | 0.08 | 0.08 | 45 | 1008.9 |
| 20260505233247 | 23 | 186 | 4.8 | 4.8 | 0.00 | 0.08 | 0.08 | 44 | 1008.9 |
| 20260505232247 | 23 | 197 | 4.8 | 8.0 | 0.00 | 0.08 | 0.08 | 45 | 1008.8 |
| 20260505231242 | 23 | 139 | 3.2 | 4.8 | 0.00 | 0.08 | 0.08 | 45 | 1008.9 |
| 20260505230242 | 23 | 159 | 3.2 | 4.8 | 0.00 | 0.08 | 0.08 | 44 | 1008.7 |
| 20260505225242 | 23 | 174 | 1.6 | 3.2 | 0.00 | 0.08 | 0.08 | 45 | 1008.5 |
| 20260505224241 | 23 | 203 | 1.6 | 4.8 | 0.00 | 0.08 | 0.08 | 45 | 1008.4 |
| 20260505223240 | 23 | 186 | 6.4 | 8.0 | 0.00 | 0.08 | 0.08 | 45 | 1008.5 |
| 20260505222239 | 24 | 186 | 1.6 | 1.6 | 0.00 | 0.08 | 0.08 | 44 | 1008.5 |
| 20260505221238 | 24 | 186 | 1.6 | 3.2 | 0.00 | 0.08 | 0.08 | 44 | 1008.4 |
| 20260505220233 | 24 | 199 | 4.8 | 4.8 | 0.00 | 0.08 | 0.08 | 43 | 1008.2 |
| 20260505215228 | 24 | 209 | 8.0 | 11.3 | 0.00 | 0.08 | 0.08 | 43 | 1008.3 |
| 20260505214223 | 24 | 199 | 4.8 | 4.8 | 0.00 | 0.08 | 0.08 | 43 | 1008.4 |
| 20260505213218 | 25 | 182 | 4.8 | 4.8 | 0.00 | 0.08 | 0.08 | 44 | 1008.3 |
| 20260505212217 | 25 | 180 | 4.8 | 8.0 | 0.00 | 0.08 | 0.08 | 42 | 1008.2 |
| 20260505211217 | 25 | 163 | 6.4 | 9.7 | 0.00 | 0.08 | 0.08 | 43 | 1007.9 |
| 20260505210216 | 25 | 206 | 8.0 | 9.7 | 0.00 | 0.08 | 0.08 | 43 | 1008.0 |
| 20260505205212 | 25 | 197 | 6.4 | 8.0 | 0.00 | 0.08 | 0.08 | 43 | 1008.1 |
| 20260505204212 | 25 | 203 | 4.8 | 8.0 | 0.00 | 0.08 | 0.08 | 43 | 1008.2 |
| 20260505203212 | 25 | 168 | 4.8 | 8.0 | 0.00 | 0.08 | 0.08 | 44 | 1008.1 |
| 20260505202209 | 26 | 181 | 3.2 | 4.8 | 0.00 | 0.08 | 0.08 | 40 | 1008.0 |
| 20260505201204 | 26 | 192 | 6.4 | 9.7 | 0.00 | 0.08 | 0.08 | 36 | 1008.0 |
| 20260505200204 | 26 | 141 | 6.4 | 11.3 | 0.00 | 0.08 | 0.08 | 38 | 1008.0 |
| 20260505195203 | 26 | 229 | 8.0 | 11.3 | 0.00 | 0.08 | 0.08 | 37 | 1008.4 |
| 20260505194202 | 26 | 144 | 6.4 | 11.3 | 0.00 | 0.08 | 0.08 | 37 | 1008.4 |
| 20260505193202 | 26 | 199 | 11.3 | 17.7 | 0.00 | 0.08 | 0.08 | 36 | 1008.5 |
| 20260505192157 | 27 | 169 | 9.7 | 16.1 | 0.00 | 0.08 | 0.08 | 36 | 1008.5 |
| 20260505191153 | 26 | 251 | 8.0 | 14.5 | 0.00 | 0.08 | 0.08 | 35 | 1008.7 |
| 20260505190149 | 26 | 123 | 4.8 | 8.0 | 0.00 | 0.08 | 0.08 | 36 | 1008.5 |
| 20260505185148 | 26 | 181 | 9.7 | 11.3 | 0.00 | 0.08 | 0.08 | 38 | 1009.1 |
| 20260505184148 | 26 | 247 | 9.7 | 17.7 | 0.00 | 0.08 | 0.08 | 37 | 1009.1 |
| 20260505183148 | 26 | 189 | 8.0 | 12.9 | 0.00 | 0.08 | 0.08 | 38 | 1009.1 |
| 20260505182147 | 26 | 154 | 12.9 | 22.5 | 0.00 | 0.08 | 0.08 | 37 | 1009.3 |
| 20260505181147 | 26 | 256 | 4.8 | 9.7 | 0.00 | 0.08 | 0.08 | 40 | 1009.2 |
| 20260505180147 | 26 | 187 | 8.0 | 9.7 | 0.00 | 0.08 | 0.08 | 41 | 1009.4 |
| 20260505175145 | 26 | 266 | 8.0 | 11.3 | 0.00 | 0.08 | 0.08 | 43 | 1009.6 |
| 20260505174143 | 26 | 145 | 4.8 | 9.7 | 0.00 | 0.08 | 0.08 | 45 | 1009.6 |
| 20260505173143 | 26 | 179 | 8.0 | 12.9 | 0.00 | 0.08 | 0.08 | 44 | 1009.6 |
| 20260505172143 | 25 | 148 | 8.0 | 11.3 | 0.00 | 0.08 | 0.08 | 47 | 1009.6 |
| 20260505171140 | 25 | 204 | 8.0 | 11.3 | 0.00 | 0.08 | 0.08 | 49 | 1010.0 |
| 20260505170140 | 24 | 158 | 6.4 | 11.3 | 0.00 | 0.08 | 0.08 | 50 | 1010.0 |
| 20260505165137 | 25 | 191 | 4.8 | 4.8 | 0.00 | 0.08 | 0.08 | 48 | 1010.0 |
| 20260505164136 | 25 | 173 | 6.4 | 9.7 | 0.00 | 0.08 | 0.08 | 49 | 1010.1 |
| 20260505163131 | 25 | 204 | 6.4 | 11.3 | 0.00 | 0.08 | 0.08 | 48 | 1010.4 |
| 20260505162126 | 25 | 211 | 8.0 | 9.7 | 0.00 | 0.08 | 0.08 | 50 | 1010.6 |
| 20260505161126 | 24 | 153 | 3.2 | 4.8 | 0.00 | 0.08 | 0.08 | 53 | 1010.6 |
| 20260505160121 | 23 | 248 | 6.4 | 9.7 | 0.00 | 0.08 | 0.08 | 54 | 1010.6 |
| 20260505153112 | 23 | 163 | 4.8 | 4.8 | 0.00 | 0.08 | 0.08 | 58 | 1011.2 |
| 20260505152109 | 23 | 189 | 6.4 | 9.7 | 0.00 | 0.08 | 0.08 | 58 | 1011.2 |
| 20260505151108 | 22 | 198 | 3.2 | 8.0 | 0.00 | 0.08 | 0.08 | 60 | 1011.3 |
| 20260505150107 | 22 | 168 | 0.0 | 1.6 | 0.00 | 0.08 | 0.08 | 64 | 1011.4 |
| 20260505124045 | 17 | 165 | 1.6 | 3.2 | 0.00 | 0.08 | 0.08 | 77 | 1011.7 |
| 20260505123044 | 16 | 134 | 1.6 | 1.6 | 0.00 | 0.08 | 0.08 | 78 | 1011.7 |
| 20260505122044 | 16 | 206 | 1.6 | 1.6 | 0.00 | 0.08 | 0.08 | 78 | 1011.7 |
| 20260505121043 | 16 | 139 | 0.0 | 0.0 | 0.00 | 0.08 | 0.08 | 83 | 1011.9 |
| 20260505120041 | 16 | 196 | 0.0 | 1.6 | 0.00 | 0.08 | 0.08 | 82 | 1012.0 |
| 20260505115039 | 14 | 149 | 0.0 | 0.0 | 0.00 | 0.08 | 0.08 | 89 | 1011.7 |
| 20260505114038 | 13 | 154 | 0.0 | 1.6 | 0.00 | 0.08 | 0.08 | 94 | 1011.6 |
| 20260505113037 | 12 | 152 | 0.0 | 0.0 | 0.00 | 0.08 | 0.08 | 99 | 1011.3 |
| 20260505112032 | 11 | 152 | 0.0 | 0.0 | 0.00 | 0.08 | 0.08 | 99 | 1011.2 |
| 20260505111028 | 10 | 131 | 0.0 | 0.0 | 0.00 | 0.08 | 0.08 | 99 | 1011.3 |
| 20260505102015 | 9 | 117 | 0.0 | 1.6 | 0.00 | 0.08 | 0.08 | 99 | 1011.4 |
| 20260505101015 | 9 | 160 | 0.0 | 0.0 | 0.00 | 0.08 | 0.08 | 99 | 1011.1 |
| 20260505100015 | 9 | 148 | 0.0 | 1.6 | 0.00 | 0.08 | 0.08 | 99 | 1010.9 |
| 20260505095013 | 10 | 129 | 1.6 | 1.6 | 0.00 | 0.08 | 0.08 | 99 | 1010.8 |
| 20260505094012 | 10 | 126 | 0.0 | 1.6 | 0.00 | 0.08 | 0.08 | 99 | 1011.0 |
| 20260505093012 | 10 | 350 | 1.6 | 1.6 | 0.00 | 0.08 | 0.08 | 99 | 1010.7 |
| 20260505092008 | 10 | 359 | 3.2 | 3.2 | 0.13 | 0.08 | 0.08 | 98 | 1010.8 |
| 20260505091002 | 10 | 189 | 1.6 | 1.6 | 0.30 | 0.05 | 0.05 | 96 | 1010.8 |
| 20260505085957 | 10 | 150 | 1.6 | 1.6 | 0.00 | 0.00 | 0.00 | 92 | 1011.3 |
| 20260505084953 | 11 | 249 | 3.2 | 3.2 | 0.00 | 0.00 | 0.00 | 86 | 1011.4 |
| 20260505083949 | 11 | 119 | 0.0 | 0.0 | 0.00 | 0.00 | 0.00 | 82 | 1011.4 |
| 20260505082948 | 10 | 105 | 1.6 | 1.6 | 0.00 | 0.00 | 0.00 | 83 | 1011.1 |
| 20260505081947 | 10 | 109 | 0.0 | 0.0 | 0.00 | 0.00 | 0.00 | 82 | 1011.0 |
| 20260505080946 | 10 | 116 | 0.0 | 0.0 | 0.00 | 0.00 | 0.00 | 84 | 1010.7 |
| 20260505075943 | 10 | 115 | 0.0 | 0.0 | 0.00 | 0.00 | 0.00 | 83 | 1010.6 |
| 20260505074938 | 11 | 18 | 3.2 | 3.2 | 0.00 | 0.00 | 0.00 | 79 | 1010.5 |
| 20260505073938 | 10 | 93 | 1.6 | 1.6 | 0.00 | 0.00 | 0.00 | 80 | 1010.6 |
| 20260505072938 | 10 | 97 | 0.0 | 0.0 | 0.00 | 0.00 | 0.00 | 81 | 1010.7 |
| 20260505071936 | 10 | 96 | 0.0 | 0.0 | 0.00 | 0.00 | 0.00 | 81 | 1010.9 |
| 20260505070936 | 10 | 95 | 1.6 | 1.6 | 0.00 | 0.00 | 0.00 | 83 | 1010.7 |
| 20260505065934 | 11 | 109 | 0.0 | 0.0 | 0.00 | 0.00 | 0.00 | 80 | 1010.7 |
| 20260505064933 | 11 | 123 | 1.6 | 1.6 | 0.00 | 0.00 | 0.00 | 78 | 1010.7 |
| 20260505063929 | 11 | 125 | 0.0 | 0.0 | 0.00 | 0.00 | 0.00 | 77 | 1010.9 |
| 20260505062927 | 11 | 125 | 1.6 | 1.6 | 0.00 | 0.00 | 0.00 | 77 | 1010.8 |
| 20260505061926 | 11 | 126 | 0.0 | 0.0 | 0.00 | 0.00 | 0.00 | 81 | 1011.0 |
| 20260505060922 | 11 | 77 | 1.6 | 1.6 | 0.00 | 0.00 | 0.00 | 78 | 1010.9 |
| 20260505055921 | 11 | 119 | 1.6 | 1.6 | 0.00 | 0.00 | 0.00 | 78 | 1011.0 |
| 20260505054920 | 11 | 120 | 0.0 | 0.0 | 0.00 | 0.00 | 0.00 | 77 | 1010.9 |
| 20260505053915 | 11 | 106 | 1.6 | 1.6 | 0.00 | 0.00 | 0.00 | 75 | 1011.0 |
| 20260505052915 | 11 | 125 | 0.0 | 1.6 | 0.00 | 0.00 | 0.00 | 74 | 1011.1 |
| 20260505051915 | 11 | 56 | 3.2 | 3.2 | 0.00 | 0.00 | 0.00 | 73 | 1010.9 |
| 20260505050910 | 11 | 50 | 1.6 | 1.6 | 0.00 | 0.00 | 0.00 | 75 | 1010.9 |
| 20260505040901 | 12 | 17 | 1.6 | 1.6 | 0.00 | 0.00 | 0.00 | 70 | 1010.4 |
| 20260505035901 | 12 | 332 | 1.6 | 1.6 | 0.00 | 0.00 | 0.00 | 70 | 1010.5 |
| 20260505034900 | 12 | 312 | 0.0 | 0.0 | 0.00 | 0.00 | 0.00 | 70 | 1010.4 |
| 20260505033900 | 12 | 311 | 0.0 | 1.6 | 0.00 | 0.00 | 0.00 | 68 | 1010.6 |
| 20260505032901 | 12 | 312 | 1.6 | 1.6 | 0.00 | 0.00 | 0.00 | 67 | 1010.7 |
| 20260505031859 | 13 | 311 | 0.0 | 0.0 | 0.00 | 0.00 | 0.00 | 65 | 1010.7 |
| 20260505030854 | 15 | 311 | 1.6 | 1.6 | 0.00 | 0.00 | 0.00 | 58 | 1010.7 |
| 20260505025851 | 15 | 201 | 1.6 | 1.6 | 0.00 | 0.00 | 0.00 | 59 | 1010.8 |
| 20260505024847 | 15 | 173 | 0.0 | 0.0 | 0.00 | 0.00 | 0.00 | 59 | 1010.9 |
| 20260505023847 | 15 | 192 | 0.0 | 0.0 | 0.00 | 0.00 | 0.00 | 59 | 1010.9 |
| 20260505022847 | 15 | 153 | 0.0 | 0.0 | 0.00 | 0.00 | 0.00 | 59 | 1010.9 |
| 20260505021847 | 15 | 196 | 0.0 | 0.0 | 0.00 | 0.00 | 0.00 | 58 | 1011.0 |
| 20260505020845 | 15 | 110 | 0.0 | 1.6 | 0.00 | 0.00 | 0.00 | 58 | 1010.8 |
| 20260505015844 | 15 | 158 | 0.0 | 0.0 | 0.00 | 0.00 | 0.00 | 58 | 1010.9 |